sat.trackr.live / text

‹ back to catalog

STARLINK-32523

NORAD 62165 · 2024-225C

PAYLOAD ACTIVE UNKNOWN

§ Identity

Operator
Country
US
Launch date
2024-11-30
Launch site
AFWTR
Launch vehicle
Mass (kg)
RCS (m²)

Purposes: comms

External: N2YO · Heavens-Above · Gunter

§ Orbital elements

Epoch: 2026-05-24T22:24:34.625376Z

Period
96.11 min
Inclination
70.0019°
Eccentricity
0.0002705
Mean motion
14.98339210 rev/d
Perigee alt
570.1 km
Apogee alt
573.9 km
Semi-major
6,950.2 km
B*
3.3641e-4
RAAN
332.2951°
Arg perigee
264.6683°
Mean anomaly
95.4167°
Rev number
8,129

§ Raw data

STARLINK-325231 62165U 24225C   26144.93373409  .00003924  00000+0  33641-3 0  99972 62165  70.0019 332.2951 0002705 264.6683  95.4167 14.98339210 81295

JSON: /api/v1/satellites/62165 · /tle

For live sub-satellite position, see the globe view (requires WebGL).

§ Visibility from observer

Set your observer location to see the next 7 days of passes ≥ 10°. The values pass through the URL so the page stays shareable.

No JS? Fill the form by hand. The geolocation button needs JavaScript.